When you browse on this site, cookies collect data to enhance your experience and personalize the content and advertising you see.
Visit our Privacy Policy to learn more. By continuing to use the site, you agree to this use of cookies and data.
  • In Austria
  • List of Countries
  • For 7 days
  • Water Temperature
  • Weather Map
  • News
  • Weather Widgets
  • user-avatar
    Login

    Hourly Weather Braga

    Today, 18 September, Wednesday

    Time Temperature Precipitation Wind Pressure Humidity
    00:00 +18°C° 0.1 mm 0 mps 750 mmHg 89%
    01:00 +17°C° 0.1 mm 0 mps 750 mmHg 89%
    02:00 +17°C° 0.1 mm 0 mps 750 mmHg 89%
    03:00 +17°C° 0.1 mm 0 mps 750 mmHg 89%
    04:00 +17°C° 0.1 mm 0 mps 750 mmHg 90%
    05:00 +17°C° 0.1 mm 0 mps 750 mmHg 90%
    06:00 +18°C° 0 mm 0 mps 751 mmHg 84%
    07:00 +20°C° 0 mm 0 mps 751 mmHg 77%
    08:00 +22°C° 0 mm 0 mps 751 mmHg 71%
    09:00 +26°C° 0 mm 1 mps 751 mmHg 64%
    10:00 +28°C° 0 mm 1 mps 751 mmHg 56%
    11:00 +29°C° 0 mm 2 mps 751 mmHg 49%
    12:00 +29°C° 0 mm 2 mps 751 mmHg 51%
    13:00 +28°C° 0 mm 3 mps 751 mmHg 53%
    14:00 +28°C° 0 mm 3 mps 750 mmHg 55%
    15:00 +27°C° 0.1 mm 3 mps 750 mmHg 61%
    16:00 +25°C° 0.1 mm 2 mps 750 mmHg 67%
    17:00 +24°C° 0.1 mm 2 mps 750 mmHg 73%
    18:00 +21°C° 0.4 mm 2 mps 751 mmHg 80%
    19:00 +21°C° 0.4 mm 1 mps 751 mmHg 86%
    20:00 +19°C° 0.4 mm 1 mps 751 mmHg 92%
    21:00 +19°C° 0.1 mm 1 mps 751 mmHg 93%
    22:00 +17°C° 0.1 mm 0 mps 751 mmHg 93%
    23:00 +17°C° 0.1 mm 0 mps 751 mmHg 93%

    Tomorrow, 19 September, Thursday

    Time Temperature Precipitation Wind Pressure Humidity
    00:00 +17°C° 0.1 mm 0 mps 751 mmHg 93%
    01:00 +17°C° 0.1 mm 0 mps 751 mmHg 93%
    02:00 +16°C° 0.1 mm 0 mps 751 mmHg 93%
    03:00 +16°C° 0.1 mm 0 mps 751 mmHg 93%
    04:00 +16°C° 0.1 mm 0 mps 751 mmHg 93%
    05:00 +16°C° 0.1 mm 0 mps 751 mmHg 93%
    06:00 +18°C° 0.1 mm 0 mps 751 mmHg 88%
    07:00 +19°C° 0.1 mm 0 mps 751 mmHg 83%
    08:00 +21°C° 0.1 mm 0 mps 751 mmHg 78%
    09:00 +25°C° 0.1 mm 1 mps 751 mmHg 71%
    10:00 +26°C° 0.1 mm 1 mps 751 mmHg 63%
    11:00 +28°C° 0.1 mm 2 mps 751 mmHg 56%
    12:00 +28°C° 0.1 mm 2 mps 751 mmHg 57%
    13:00 +27°C° 0.1 mm 3 mps 750 mmHg 57%
    14:00 +27°C° 0.1 mm 3 mps 750 mmHg 58%
    15:00 +25°C° 0.3 mm 3 mps 750 mmHg 66%
    16:00 +24°C° 0.3 mm 2 mps 750 mmHg 73%
    17:00 +21°C° 0.3 mm 2 mps 749 mmHg 81%
    18:00 +21°C° 0.1 mm 1 mps 750 mmHg 85%
    19:00 +20°C° 0.1 mm 1 mps 750 mmHg 89%
    20:00 +17°C° 0.1 mm 0 mps 751 mmHg 93%
    21:00 +16°C° 0 mm 0 mps 750 mmHg 94%
    22:00 +16°C° 0 mm 0 mps 750 mmHg 94%
    23:00 +16°C° 0 mm 0 mps 750 mmHg 95%

    Day after tomorrow, 20 September, Friday

    Time Temperature Precipitation Wind Pressure Humidity
    00:00 +16°C° 0 mm 0 mps 749 mmHg 95%
    01:00 +16°C° 0 mm 0 mps 749 mmHg 95%
    02:00 +16°C° 0 mm 0 mps 749 mmHg 95%
    03:00 +16°C° 0 mm 0 mps 749 mmHg 95%
    04:00 +16°C° 0 mm 0 mps 749 mmHg 94%
    05:00 +16°C° 0 mm 0 mps 748 mmHg 94%
    06:00 +17°C° 0 mm 0 mps 749 mmHg 88%
    07:00 +21°C° 0 mm 1 mps 749 mmHg 81%
    08:00 +22°C° 0 mm 1 mps 749 mmHg 75%
    09:00 +24°C° 0 mm 1 mps 749 mmHg 68%
    10:00 +25°C° 0 mm 2 mps 748 mmHg 61%
    11:00 +26°C° 0 mm 2 mps 748 mmHg 54%
    12:00 +26°C° 0 mm 3 mps 748 mmHg 54%
    13:00 +26°C° 0 mm 3 mps 747 mmHg 55%
    14:00 +26°C° 0 mm 3 mps 747 mmHg 55%
    15:00 +24°C° 0 mm 3 mps 747 mmHg 60%
    16:00 +22°C° 0 mm 3 mps 747 mmHg 64%
    17:00 +21°C° 0 mm 2 mps 746 mmHg 69%
    18:00 +20°C° 0 mm 2 mps 747 mmHg 73%
    19:00 +19°C° 0 mm 2 mps 747 mmHg 76%
    20:00 +18°C° 0 mm 2 mps 747 mmHg 79%
    21:00 +18°C° 0 mm 2 mps 746 mmHg 79%
    22:00 +18°C° 0 mm 2 mps 746 mmHg 79%
    23:00 +18°C° 0 mm 2 mps 745 mmHg 79%

    21 September, Saturday

    Time Temperature Precipitation Wind Pressure Humidity
    00:00 +18°C° 0.1 mm 2 mps 745 mmHg 80%
    01:00 +18°C° 0.1 mm 3 mps 745 mmHg 82%
    02:00 +18°C° 0.1 mm 3 mps 744 mmHg 83%
    03:00 +18°C° 0.9 mm 3 mps 744 mmHg 86%
    04:00 +18°C° 0.9 mm 3 mps 744 mmHg 88%
    05:00 +18°C° 0.9 mm 4 mps 743 mmHg 90%
    06:00 +18°C° 0.6 mm 3 mps 744 mmHg 91%
    07:00 +18°C° 0.6 mm 3 mps 744 mmHg 92%
    08:00 +18°C° 0.6 mm 3 mps 744 mmHg 92%
    09:00 +19°C° 0.6 mm 3 mps 744 mmHg 93%
    10:00 +19°C° 0.6 mm 3 mps 744 mmHg 93%
    11:00 +19°C° 0.6 mm 4 mps 744 mmHg 93%
    12:00 +19°C° 1.3 mm 3 mps 744 mmHg 94%
    13:00 +19°C° 1.3 mm 3 mps 744 mmHg 95%
    14:00 +18°C° 1.3 mm 3 mps 744 mmHg 95%
    15:00 +18°C° 0.3 mm 3 mps 744 mmHg 94%
    16:00 +18°C° 0.3 mm 2 mps 745 mmHg 92%
    17:00 +18°C° 0.3 mm 2 mps 745 mmHg 91%
    18:00 +17°C° 0.1 mm 2 mps 746 mmHg 91%
    19:00 +16°C° 0.1 mm 1 mps 746 mmHg 92%
    20:00 +15°C° 0.1 mm 1 mps 747 mmHg 93%
    21:00 +15°C° 0.2 mm 1 mps 747 mmHg 93%
    22:00 +15°C° 0.2 mm 1 mps 748 mmHg 93%
    23:00 +15°C° 0.2 mm 1 mps 748 mmHg 94%

    22 September, Sunday

    Time Temperature Precipitation Wind Pressure Humidity
    00:00 +15°C° 0.1 mm 1 mps 748 mmHg 94%
    01:00 +15°C° 0.1 mm 1 mps 748 mmHg 93%
    02:00 +14°C° 0.1 mm 1 mps 749 mmHg 93%
    03:00 +14°C° 0.1 mm 1 mps 749 mmHg 93%
    04:00 +14°C° 0.1 mm 1 mps 749 mmHg 93%
    05:00 +14°C° 0.1 mm 1 mps 749 mmHg 93%
    06:00 +15°C° 0.1 mm 2 mps 750 mmHg 89%
    07:00 +16°C° 0.1 mm 2 mps 750 mmHg 85%
    08:00 +17°C° 0.1 mm 2 mps 751 mmHg 82%
    09:00 +18°C° 0.1 mm 2 mps 751 mmHg 75%
    10:00 +19°C° 0.1 mm 2 mps 751 mmHg 68%
    11:00 +20°C° 0.1 mm 2 mps 751 mmHg 61%
    12:00 +21°C° 0 mm 3 mps 751 mmHg 59%
    13:00 +21°C° 0 mm 3 mps 751 mmHg 57%
    14:00 +21°C° 0 mm 3 mps 751 mmHg 56%
    15:00 +20°C° 0 mm 3 mps 752 mmHg 63%
    16:00 +19°C° 0 mm 2 mps 752 mmHg 69%
    17:00 +18°C° 0 mm 2 mps 752 mmHg 76%
    18:00 +18°C° 0 mm 1 mps 753 mmHg 81%
    19:00 +16°C° 0 mm 1 mps 754 mmHg 86%
    20:00 +14°C° 0 mm 0 mps 754 mmHg 91%
    21:00 +13°C° 0 mm 0 mps 754 mmHg 92%
    22:00 +13°C° 0 mm 0 mps 754 mmHg 92%
    23:00 +14°C° 0 mm 1 mps 754 mmHg 92%

    23 September, Monday

    Time Temperature Precipitation Wind Pressure Humidity
    00:00 +14°C° 0 mm 1 mps 754 mmHg 91%
    01:00 +14°C° 0 mm 1 mps 754 mmHg 91%
    02:00 +13°C° 0 mm 1 mps 754 mmHg 91%
    03:00 +13°C° 0 mm 1 mps 754 mmHg 89%
    04:00 +13°C° 0 mm 1 mps 754 mmHg 88%
    05:00 +13°C° 0 mm 1 mps 754 mmHg 87%
    06:00 +15°C° 0 mm 1 mps 754 mmHg 78%
    07:00 +16°C° 0 mm 0 mps 755 mmHg 70%
    08:00 +18°C° 0 mm 0 mps 755 mmHg 61%
    09:00 +22°C° 0 mm 1 mps 755 mmHg 56%
    10:00 +23°C° 0 mm 1 mps 755 mmHg 51%
    11:00 +25°C° 0 mm 1 mps 755 mmHg 47%
    12:00 +25°C° 0 mm 1 mps 754 mmHg 48%
    13:00 +25°C° 0 mm 2 mps 754 mmHg 48%
    14:00 +25°C° 0 mm 2 mps 754 mmHg 49%
    15:00 +23°C° 0 mm 2 mps 754 mmHg 56%
    16:00 +22°C° 0 mm 1 mps 753 mmHg 62%
    17:00 +21°C° 0 mm 1 mps 753 mmHg 68%
    18:00 +19°C° 0 mm 1 mps 754 mmHg 73%
    19:00 +18°C° 0 mm 1 mps 754 mmHg 77%
    20:00 +15°C° 0 mm 0 mps 755 mmHg 81%
    21:00 +15°C° 0 mm 0 mps 754 mmHg 82%
    22:00 +16°C° 0 mm 1 mps 754 mmHg 83%
    23:00 +16°C° 0 mm 1 mps 754 mmHg 83%
    Show more